Home   Weather   Saanich   Past weeks

Flag for Canada Past Weather in Saanich, British Columbia, Canada — Yesterday and Last 2 Weeks

Now
43 °F

Scattered clouds.


Feels Like: 39 °F
Forecast: 46 / 52 °F
Wind: 7 mph from West

Location: Victoria Int. Airportb. C.

Current Time: Apr 27, 2017 at 6:21:29 am

Latest Report: Apr 27, 2017 at 6:00 am


Visibility: 30 mi

Pressure: 30.01 "Hg

Humidity: 81%

Dew Point: 37 °F

Location of SaanichLocation

Past Weather in Saanich — Graph

°F

Saanich Temperature Yesterday

Maximum temperature yesterday: 57 °F (at 2:00 pm)
Minimum temperature yesterday: 46 °F (at 11:00 pm)
Average temperature yesterday: 51 °F

High & Low Weather Summary for the Past Weeks

 TemperatureHumidityPressure
High61 °F (Apr 21, 4:00 pm)100% (Apr 12, 7:45 am)30.42 "Hg (Apr 12, 7:45 am)
Low39 °F (Apr 15, 11:00 pm)48% (Apr 16, 5:00 pm)29.65 "Hg (Apr 13, 12:30 am)
Average49 °F81%29.93 "Hg
* Reported Apr 12 5:00 am — Apr 27 5:00 am, Saanich, Weather by CustomWeather, © 2017

Note: Actual official high and low records may vary slightly from our data, if they occured in-between our weather recording intervals... More about our weather records

Advertising

Saanich Weather History for the Previous 24 Hours

Scroll right to see more
 ConditionsComfort  
Time TempWeatherWind HumidityBarometerVisibility
5:00 am
Thu, Apr 27
43 °FPassing clouds.7 mph81%30.00 "Hg30 mi
4:00 am45 °FPassing clouds.9 mph76%29.98 "Hg30 mi
3:00 am45 °FPassing clouds.8 mph76%29.98 "Hg30 mi
2:00 am45 °FPassing clouds.7 mph76%29.97 "Hg30 mi
1:00 am45 °FPassing clouds.10 mph76%29.96 "Hg30 mi
12:00 am46 °FPassing clouds.9 mph71%29.95 "Hg30 mi
11:00 pm
Wed, Apr 26
46 °FPassing clouds.10 mph71%29.93 "Hg30 mi
10:00 pm48 °FPassing clouds.16 mph66%29.92 "Hg30 mi
9:00 pm48 °FPassing clouds.21 mph66%29.90 "Hg30 mi
8:00 pm50 °FScattered clouds.18 mph58%29.87 "Hg30 mi
7:00 pm52 °FPassing clouds.22 mph54%29.85 "Hg30 mi
6:00 pm54 °FPassing clouds.20 mph54%29.85 "Hg30 mi
5:00 pm55 °FPassing clouds.16 mph51%29.83 "Hg30 mi
4:00 pm55 °FPassing clouds.20 mph51%29.82 "Hg30 mi
3:00 pm54 °FScattered clouds.17 mph54%29.82 "Hg30 mi
2:00 pm57 °FScattered clouds.20 mph51%29.81 "Hg30 mi
1:00 pm55 °FScattered clouds.15 mph59%29.80 "Hg30 mi
12:26 pm54 °FScattered clouds.12 mph58%29.79 "Hg30 mi
11:00 am52 °FBroken clouds.15 mph62%29.79 "Hg30 mi
10:00 am52 °FScattered clouds.12 mph67%29.77 "Hg30 mi
9:00 am54 °FScattered clouds.5 mph67%29.76 "Hg30 mi
8:00 am52 °FBroken clouds.6 mph72%29.75 "Hg30 mi
7:00 am48 °FBroken clouds.9 mph76%29.74 "Hg30 mi
6:00 am48 °FPartly cloudy.9 mph82%29.73 "Hg30 mi
Weather by CustomWeather, © 2017

See weather overviewHow to use our weather pages